Home > Time Zones > World Clock > Weather > U.S.A. > Napa > Past weeks

Flag for U.S.A. Weather past 2 weeks in Napa, California, U.S.A.

Now
63 °F

Sunny.


Feels Like: 63 °F
Forecast: 48 / 66 °F
Wind: 18 mph from West

Location: Napa County Airport


UV Index: 0 (Low)

Visibility: 10 mi


Pressure: 30.03 "Hg

Humidity: 58%

Dew point: 48 °F

Location of NapaLocation

Historic Weather in Napa

°F

Napa temperature yesterday

Maximum temperature yesterday: 63 °F (at 12:54 PM)
Minimum temperature yesterday: 47 °F (at 6:54 AM)
Average temperature yesterday: 54 °F

Past Weeks' High & Low Weather Summary

 TemperatureHumidityPressure
High78 °F (Apr 20, 3:54 PM)100% (Apr 9, 3:54 AM)30.13 "Hg (Apr 9, 3:54 AM)
Low39 °F (Apr 23, 3:54 AM)40% (Apr 20, 5:54 PM)29.77 "Hg (Apr 17, 6:54 PM)
Average56 °F81%29.95 "Hg
* Reported Apr 8 5:54 PM — Apr 23 5:54 PM, Napa, Weather by CustomWeather, © 2014

Note: Actual official high and low records may vary slightly from our data, if they occured in-between our weather recording intervals... More about our weather records

Advertising

Historic Weather Conditions — Data for Previous 24 hours

 ConditionsComfort  
Time TempWeatherWind HumidityBarometerVisibility
5:54 PM
Apr 23
63 °FSunny.18 mph58%30.03 "Hg10 mi
4:54 PM63 °FSunny.21 mph58%30.03 "Hg10 mi
3:54 PM65 °FSunny.17 mph54%30.05 "Hg10 mi
2:54 PM66 °FSunny.14 mph52%30.06 "Hg10 mi
1:54 PM66 °FSunny.13 mph50%30.08 "Hg10 mi
12:54 PM64 °FSunny.8 mph47%30.10 "Hg10 mi
11:54 AM61 °FSunny.6 mph48%30.11 "Hg10 mi
10:54 AM58 °FSunny.3 mph51%30.12 "Hg10 mi
9:54 AM55 °FSunny.No wind53%30.12 "Hg10 mi
8:54 AM50 °FSunny.No wind68%30.12 "Hg10 mi
7:54 AM47 °FSunny.No wind77%30.12 "Hg10 mi
6:54 AM39 °FClear.3 mph93%30.10 "Hg10 mi
5:54 AM39 °FClear.No wind93%30.08 "Hg10 mi
4:54 AM41 °FClear.3 mph82%30.08 "Hg10 mi
3:54 AM39 °FClear.No wind86%30.08 "Hg10 mi
2:54 AM44 °FClear.6 mph82%30.07 "Hg10 mi
1:54 AM45 °FClear.7 mph80%30.07 "Hg10 mi
12:54 AM47 °FClear.7 mph74%30.08 "Hg10 mi
11:54 PM
Apr 22
50 °FClear.6 mph68%30.08 "Hg10 mi
10:54 PM49 °FClear.12 mph71%30.07 "Hg10 mi
9:54 PM50 °FClear.16 mph77%30.06 "Hg10 mi
8:54 PM50 °FClear.12 mph77%30.06 "Hg10 mi
7:54 PM51 °FSunny.15 mph74%30.04 "Hg10 mi
6:54 PM54 °FSunny.23 mph64%30.02 "Hg10 mi
Weather by CustomWeather, © 2014

See weather overview